Location: Great Chart
(51.1333°N, 0.8333°E)
Time: 10:49:13
(UTC+00:00)

Cosmos 1459 Rocket - Pass Details

Date: 19 September 2020
Orbit: 936 x 1001 km, 83.0° (Epoch: 30 October)

Event Time Altitude Azimuth Distance (km) Brightness Sun altitude
Rises 04:18:51 0° 350° (N) 3,649 7.1 -13.1°
Reaches altitude 10° 04:21:24 10° 353° (N) 2,691 6.5 -12.7°
Maximum altitude 04:27:32 74° 78° (ENE) 986 4.2 -11.8°
Drops below altitude 10° 04:33:34 10° 164° (SSE) 2,645 6.3 -10.9°
Sets 04:36:02 0° 166° (SSE) 3,583 7.0 -10.5°
